Regional Weather Roundup
Issued by NWS

Home | Current Version | Previous Version | Graphics & Text | Print | Product List | Glossary Off
Versions: 1 2 3 4 5 6 7 8 9 10 11 12 13 14 15 16 17 18 19 20 21 22 23 24 25 26 27 28 29 30 31 32 33 34 35 36 37 38 39 40 41 42 43 44 45 46 47 48 49 50

258
ASUS43 KMKX 291000
RWRWI

WISCONSIN REGIONAL WEATHER ROUNDUP
NATIONAL WEATHER SERVICE MILWAUKEE/SULLIVAN WI
500 AM CDT WED MAR 29 2017

NOTE: "FAIR" INDICATES FEW OR NO CLOUDS BELOW 12,000 FEET WITH NO
SIGNIFICANT WEATHER AND/OR OBSTRUCTIONS TO VISIBILITY.

WIZ001-002-006>008-014>016-023>028-291100-
NORTHWEST WISCONSIN

CITY           SKY/WX    TMP DP  RH WIND       PRES   REMARKS
SUPERIOR ARPT  MOCLDY    34  31  87 NE9G18    30.30S WCI  27
ASHLAND        CLEAR     29  27  92 NE7       30.30S WCI  22
HAYWARD        CLOUDY    29  26  89 NE3       30.25S
SIREN          CLOUDY    34  28  80 CALM      30.24R
CUMBERLAND     CLOUDY    34  27  75 E3        30.22S
RICE LAKE      CLOUDY    30  28  93 CALM      30.24S
CHETEK         CLOUDY    30  28  92 CALM      30.24R
LADYSMITH      CLOUDY    32  28  86 CALM      30.26S
EAU CLAIRE     NOT AVBL
MENOMONIE      CLOUDY    34  30  86 CALM      30.23R
NEW RICHMOND   PTCLDY    38  28  68 CALM      30.21S
OSCEOLA        CLOUDY    35  29  76 CALM      30.24R
$$

WIZ003>005-009-010-017-018-291100-
NORTH CENTRAL WISCONSIN

CITY           SKY/WX    TMP DP  RH WIND       PRES   REMARKS
MANITOWISH WTR CLEAR     26  26 100 CALM      30.26R
ARBOR VITAE    CLEAR     32  28  87 CALM      30.26R
WOODRUFF       CLEAR     32  28  87 CALM      30.26R
RHINELANDER    CLEAR     28  26  92 NE3       30.27R
EAGLE RIVER    CLEAR     26  26 100 CALM      30.27R
LAND O LAKES   CLEAR     26  26  98 CALM      30.29R
PHILLIPS       CLOUDY    31  27  86 CALM      30.25R
TOMAHAWK       CLOUDY    25  23  91 CALM      30.27S
MEDFORD        MOCLDY    33  29  85 E3        30.24R
MERRILL        CLOUDY    27  26  94 CALM      30.26S
$$

WIZ029-030-035-036-043>047-291100-
CENTRAL WISCONSIN

CITY           SKY/WX    TMP DP  RH WIND       PRES   REMARKS
WAUSAU         CLOUDY    31  28  89 CALM      30.25R
MOSINEE        CLOUDY    34  30  86 NE6       30.26R WCI  29
MARSHFIELD     CLOUDY    36  28  73 NE3       30.24R
STEVENS POINT  CLOUDY    28  26  94 NE3       30.26R
WAUPACA        CLOUDY    32  31  94 N3        30.27R
WAUTOMA        CLEAR     29  27  92 CALM      30.26R
WISC RAPIDS    CLOUDY    33  30  88 CALM      30.26R
CAMP DOUGLAS   CLEAR     30  28  93 CALM      30.24R FOG
$$

WIZ011>013-019>022-031-037>040-048>050-291100-
NORTHEAST WISCONSIN

CITY           SKY/WX    TMP DP  RH WIND       PRES   REMARKS
ANTIGO         PTCLDY    31  28  91 NE5       30.27R WCI  26
SHAWANO        CLOUDY    33  30  91 N5        30.29R WCI  28
OCONTO         CLEAR     32  29  88 NE5       30.29R WCI  27
STURGEON BAY   CLEAR     35  29  78 NE7       30.31R WCI  29
GREEN BAY      CLEAR     34  33  96 NE8       30.28R WCI  27
MANITOWOC      NOT AVBL
APPLETON       PTCLDY    36  32  87 NE8       30.25R WCI  29
CLINTONVILLE   CLOUDY    32  30  93 CALM      30.28R
OSHKOSH        CLEAR     36  31  82 NE7       30.26R WCI  30
$$

WIZ032>034-041-042-053>061-291100-
SOUTHWEST WISCONSIN

CITY           SKY/WX    TMP DP  RH WIND       PRES   REMARKS
LA CROSSE      PTCLDY    41  34  76 E7        30.22R
SPARTA         PTCLDY    28  27  95 CALM      30.24R
VIROQUA        PTCLDY    38  32  79 CALM      30.20S
BOSCOBEL       CLEAR     33  32  96 CALM      30.22S FOG
PRAIRIE DU CHI CLEAR     38  35  90 CALM      30.21R
PLATTEVILLE    CLOUDY    38  38 100 E8        30.20F WCI  32
$$

WIZ056-057-062-063-064-067-068-291100-
SOUTH CENTRAL WISCONSIN

CITY           SKY/WX    TMP DP  RH WIND       PRES   REMARKS
REEDSBURG      CLEAR     33  33 100 CALM      30.23R
BARABOO/DELLS  CLEAR     33  32  94 CALM      30.23R
LONE ROCK      NOT AVBL
MINERAL POINT  CLOUDY    37  37 100 E5        30.20S FOG     WCI  34
MADISON        FOG       31  30  96 CALM      30.24R VSB 1/4
MIDDLETON      CLEAR     33  33 100 CALM      30.23R
WATERTOWN      FOG       32  32 100 E5        30.23S VSB 1/2 WCI  28
MONROE         CLOUDY    34  34 100 NE6       30.20R FOG     WCI  29
JANESVILLE     FOG       34  34 100 CALM      30.21S VSB 1/2
$$

WIZ051-052-058>065-066-070>072-291100-
SOUTHEAST WISCONSIN

CITY           SKY/WX    TMP DP  RH WIND       PRES   REMARKS
MILWAUKEE      FOG       32  30  92 E3        30.25S VSB 1/4
WAUKESHA       MOCLDY    28  28 100 CALM      30.25S FOG
MILWAUKEE/TIMM FOG       30  28  93 CALM      30.25F VSB 3/4
RACINE         FOG       31  30  96 NE3       30.26S VSB 1/4
KENOSHA        FOG       31  30  96 NE6       30.24R VSB 1/4 WCI  25
FOND DU LAC    CLEAR     33  28  81 NE7       30.25R WCI  27
SHEBOYGAN      CLEAR     32  30  92 NE9       30.26R WCI  24
WEST BEND      CLEAR     30  30 100 CALM      30.24R
JUNEAU         CLEAR     30  30  99 CALM      30.24S FOG
$$

LSZ147-162-291100-
LAKE SUPERIOR

STATION/POSITION TIME  TEMP    WIND        PRES    WAVE
                       AIR SEA DIR/SP/G            HT/PER
                 (UTC) (F)     (DEG/KT/KT) (MB)    (FT/S)
DEVILS ISLAND    0900   35      50/ 17/ 19 1027.3R
PORT WING        0940   35      40/ 13/ 15 1026.1F
SAXON HARBOR     0940   26     190/  3/  3 1025.7R
$$

LMZ867-665-643>646-291100-
LAKE MICHIGAN

STATION/POSITION TIME  TEMP    WIND        PRES    WAVE
                       AIR SEA DIR/SP/G            HT/PER
                 (UTC) (F)     (DEG/KT/KT) (MB)    (FT/S)
CHAMBERS ISLAND  0940   32      20/  7/ 10 1025.7R
NORTHPORT PIER   0940   34     330/  4/  7 1026.1R
SISTER BAY       0806   37      40/  6/  9   N/A
KEWAUNEE LAKESHO 0930   36      30/  1/  7 1024.6R
SHEBOYGAN LAKESH 0900   36      10/ 13/ 14 1024.8R
PORT WASHINGTON  0930   35      10/  3/  5 1025.4R
MILWAUKEE LAKESH 0930   31      90/  3/  3   N/A
KENOSHA   LAKESH 0900   31      30/  4/  5 1024.0
$$

TC  - TEMPERATURE IN CELSIUS
VSB - VISIBILITY IN STATUTE MILES
WCI - WIND CHILL INDEX
HX  - HEAT INDEX





USA.gov is the U.S. government's official web portal to all federal, state and local government web resources and services.